Content
SEND FEEDBACK

Daily
Averages
Monthly
Summary
United States of America

NEW YORK - CENTRAL PARK, NEW YORK


Home > North America > United States > New York
Elevation: 14 feet     Latitude: 40 47N     Longitude: 073 58W

WEATHER
 
SELECT A DAY
Number of Records: 148,086;   Date Range: 11/1/95 - 7/26/14
 
SHARE

PRINT THIS DATA

[ ← Previous Day ]
WEATHER ALMANAC - DECEMBER 8, 2013
[ Next Day → ]
[ °C ]   °F
Weather ElementAverageHighLow
Temperature30.8 °F33.1 °F (12:51 pm)28.9 °F (3:51 am)
Dewpoint20.7 °F28.9 °F (11:38 pm)12 °F (4:51 am)
Humidity68.1 %88 % (11:38 pm)48 % (9:51 am)
Barometer30.51 in30.60 in (8:51 am)30.39 in (11:51 pm)
Wind Speed6.5 mph11.5 mph (10:51 am)
Wind Gust18.4 mph (11:47 pm)
Weather ElementAverage
Visibility6.2 mi
Wind DirectionNE (48.5 °)

Weather ElementTotal
Precipitation0.15 in
Heating Degree Days34 (Base 65)
Averaged from 34 records on December 8, 2013
WEATHER CONDITIONS BREAKOUT
WIND DIRECTION BREAKOUT
WEATHER BY HOUR - DECEMBER 8, 2013
[ °C ]   °F
Local TimeTemperatureDewpointHumidityBarometerVisibilityWind DirectionWind SpeedGust SpeedPrecipitationEventsConditions
1:51 AM30.0 °F12.9 °F49 %30.51 in10.0 miVariable3.5 mphClear
2:51 AM30.0 °F12.9 °F49 %30.54 in10.0 miVariable3.5 mphClear
3:51 AM28.9 °F12.9 °F51 %30.55 in10.0 miVariable3.5 mphClear
4:51 AM28.9 °F12.0 °F49 %30.54 in10.0 miNorth (350°)8.1 mphClear
5:51 AM28.9 °F12.9 °F51 %30.57 in10.0 miVariable5.8 mphClear
6:51 AM28.9 °F12.9 °F51 %30.57 in10.0 miNorth (360°)5.8 mphClear
7:51 AM30.0 °F15.1 °F54 %30.58 in10.0 miCalmClear
8:51 AM30.9 °F15.1 °F52 %30.60 in10.0 miNNE (20°)3.5 mphClear
9:51 AM32.0 °F14.0 °F48 %30.59 in10.0 miENE (60°)9.2 mphPartly Cloudy
10:51 AM32.0 °F14.0 °F48 %30.58 in10.0 miENE (60°)11.5 mphOvercast
11:51 AM32.0 °F14.0 °F48 %30.56 in10.0 miNNE (30°)6.9 mphOvercast
12:51 PM33.1 °F15.1 °F48 %30.55 in10.0 miENE (60°)6.9 mphOvercast
1:51 PM33.1 °F17.1 °F52 %30.53 in10.0 miNE (40°)5.8 mphOvercast
2:51 PM33.1 °F17.1 °F52 %30.50 in10.0 miVariable6.9 mphOvercast
3:51 PM33.1 °F17.1 °F52 %30.52 in10.0 miVariable3.5 mphOvercast
4:48 PM30.2 °F21.2 °F69 %30.54 in1.0 miVariable6.9 mph0.01 inSnowLight Snow
4:51 PM30.9 °F23.0 °F72 %30.52 in1.0 miENE (60°)8.1 mph0.01 inSnowLight Snow
5:02 PM30.0 °F24.1 °F79 %30.55 in1.0 miVariable5.8 mph0.00 inSnowLight Snow
5:51 PM30.0 °F25.0 °F82 %30.51 in1.2 miENE (60°)8.1 mph0.03 inSnowLight Snow
6:08 PM30.0 °F26.1 °F85 %30.53 in1.8 miVariable5.8 mph0.00 inSnowLight Snow
6:32 PM30.0 °F26.1 °F85 %30.52 in2.0 miVariable4.6 mph0.01 inSnowLight Snow
6:46 PM30.2 °F24.8 °F80 %30.53 in4.0 miVariable5.8 mph0.01 inSnowLight Snow
6:51 PM30.0 °F25.0 °F82 %30.51 in4.0 miVariable4.6 mph0.01 inSnowLight Snow
7:51 PM30.0 °F25.0 °F82 %30.50 in6.0 miENE (60°)4.6 mph0.00 inHaze
8:04 PM30.0 °F25.0 °F82 %30.51 in4.0 miVariable4.6 mphHaze
8:24 PM30.0 °F25.0 °F82 %30.50 in4.0 miENE (60°)6.9 mphHaze
8:34 PM30.0 °F26.1 °F85 %30.49 in4.0 miENE (70°)6.9 mph0.00 inOvercast
8:51 PM30.0 °F25.0 °F82 %30.45 in5.0 miENE (70°)11.5 mph0.00 inHaze
9:46 PM30.2 °F26.6 °F86 %30.43 in5.0 miEast (80°)6.9 mphOvercast
9:51 PM32.0 °F27.0 °F82 %30.41 in5.0 miVariable6.9 mphHaze
10:51 PM32.0 °F28.0 °F85 %30.41 in3.0 miVariable6.9 mph17.3 mphOvercast
11:38 PM32.0 °F28.9 °F88 %30.41 in3.0 miENE (60°)10.4 mph17.3 mph0.02 inOvercast
11:47 PM32.0 °F28.4 °F87 %30.40 in3.0 miENE (70°)9.2 mph18.4 mph0.02 inRainLight Freezing Rain
11:51 PM32.0 °F28.9 °F88 %30.39 in2.5 miEast (80°)10.4 mph17.3 mph0.03 inRainLight Freezing Rain
Hourly data recorded from KNYC, located miles away from New York - Central Park, New York







STORIES FROM OUR PARTNERS